Location: Mahannah Oil Field
(37.4664°N, 96.6003°W)
Time: 16:58:01
(UTC+00:00)

Vanguard 2 Rocket - Pass Details

Date: 23 June 2021
Orbit: 554 x 3325 km, 32.9° (Epoch: 24 July)

Event Time Altitude Azimuth Distance (km) Brightness Sun altitude
Rises 03:29:03 0° 268° (W) 7,313 12.1 -15.9°
Reaches altitude 10° 03:34:06 10° 267° (W) 6,250 11.7 -16.6°
Maximum altitude 03:53:33 74° 188° (S) 2,700 9.0 -19.0°
Enters shadow 04:04:25 16° 107° (ESE) 3,843 9.6 -20.3°
